Time,TemperatureF,DewpointF,PressureIn,WindDirection,WindDirectionDegrees,WindSpeedMPH,WindSpeedGustMPH,Humidity,HourlyPrecipIn,Conditions,Clouds,dailyrainin,SoftwareType,DateUTC
2013-07-26 21:12:00,65.3,59.7,29.99,ESE,122,0.0,3.0,82,0.00,,,0.00,Wunderground v.1.15,2013-07-27 01:12:00,
2013-07-26 21:18:00,65.0,59.7,30.00,ESE,122,0.0,3.0,83,0.00,,,0.00,Wunderground v.1.15,2013-07-27 01:18:00,
2013-07-26 21:23:00,64.8,60.2,30.00,ESE,123,0.0,0.0,85,0.00,,,0.00,Wunderground v.1.15,2013-07-27 01:23:00,
2013-07-26 21:29:00,64.5,59.9,30.00,ESE,123,0.0,0.0,85,0.00,,,0.00,Wunderground v.1.15,2013-07-27 01:29:00,
2013-07-26 21:34:00,64.4,59.8,30.00,ESE,122,0.0,0.0,85,0.00,,,0.00,Wunderground v.1.15,2013-07-27 01:34:00,
2013-07-26 21:39:00,64.2,59.6,30.00,ESE,122,0.0,0.0,85,0.00,,,0.00,Wunderground v.1.15,2013-07-27 01:39:00,
2013-07-26 21:44:00,64.1,60.2,30.00,ESE,122,0.0,0.0,87,0.00,,,0.00,Wunderground v.1.15,2013-07-27 01:44:00,
2013-07-26 21:50:00,63.8,59.5,30.00,ESE,122,0.0,0.0,86,0.00,,,0.00,Wunderground v.1.15,2013-07-27 01:50:00,
2013-07-26 21:55:00,63.7,59.8,30.00,ESE,122,0.0,0.0,87,0.00,,,0.00,Wunderground v.1.15,2013-07-27 01:55:00,
2013-07-26 22:00:00,63.6,59.7,30.00,ESE,122,0.0,0.0,87,0.00,,,0.00,Wunderground v.1.15,2013-07-27 02:00:00,
2013-07-26 22:05:00,63.4,59.5,30.00,ESE,122,0.0,0.0,87,0.00,,,0.00,Wunderground v.1.15,2013-07-27 02:05:00,
2013-07-26 22:12:00,63.2,59.6,30.01,ESE,122,0.0,0.0,88,0.00,,,0.00,Wunderground v.1.15,2013-07-27 02:12:00,
2013-07-26 22:17:00,63.0,59.4,30.01,ESE,122,0.0,0.0,88,0.00,,,0.00,Wunderground v.1.15,2013-07-27 02:17:00,
2013-07-26 22:23:00,62.9,59.3,30.01,ESE,122,0.0,0.0,88,0.00,,,0.00,Wunderground v.1.15,2013-07-27 02:23:00,
2013-07-26 22:28:00,62.8,59.5,30.01,ESE,122,0.0,0.0,89,0.00,,,0.00,Wunderground v.1.15,2013-07-27 02:28:00,
2013-07-26 22:33:00,62.6,59.3,30.01,ESE,122,0.0,0.0,89,0.00,,,0.00,Wunderground v.1.15,2013-07-27 02:33:00,
2013-07-26 22:39:00,62.5,59.5,30.01,ESE,122,0.0,0.0,90,0.00,,,0.00,Wunderground v.1.15,2013-07-27 02:39:00,
2013-07-26 22:45:00,62.3,59.3,30.01,ESE,122,0.0,0.0,90,0.00,,,0.00,Wunderground v.1.15,2013-07-27 02:45:00,
2013-07-26 22:50:00,62.2,58.9,30.00,ESE,122,0.0,0.0,89,0.00,,,0.00,Wunderground v.1.15,2013-07-27 02:50:00,
2013-07-26 22:56:00,62.0,59.0,30.00,ESE,122,0.0,0.0,90,0.00,,,0.00,Wunderground v.1.15,2013-07-27 02:56:00,
2013-07-26 23:02:00,61.8,58.8,30.01,ESE,122,0.0,0.0,90,0.00,,,0.00,Wunderground v.1.15,2013-07-27 03:02:00,
2013-07-26 23:08:00,61.7,58.7,30.01,ESE,122,0.0,0.0,90,0.00,,,0.00,Wunderground v.1.15,2013-07-27 03:08:00,
2013-07-26 23:13:00,61.6,58.6,30.01,ESE,122,0.0,0.0,90,0.00,,,0.00,Wunderground v.1.15,2013-07-27 03:13:00,
2013-07-26 23:18:00,61.4,58.4,30.01,ESE,122,0.0,0.0,90,0.00,,,0.00,Wunderground v.1.15,2013-07-27 03:18:00,
2013-07-26 23:23:00,61.4,58.7,30.00,ESE,122,0.0,0.0,91,0.00,,,0.00,Wunderground v.1.15,2013-07-27 03:23:00,
2013-07-26 23:28:00,61.3,58.7,30.00,ESE,122,0.0,0.0,91,0.00,,,0.00,Wunderground v.1.15,2013-07-27 03:28:00,
2013-07-26 23:33:00,61.2,58.6,30.00,ESE,122,0.0,0.0,91,0.00,,,0.00,Wunderground v.1.15,2013-07-27 03:33:00,
2013-07-26 23:39:00,61.1,58.8,30.00,ESE,122,0.0,0.0,92,0.00,,,0.00,Wunderground v.1.15,2013-07-27 03:39:00,
2013-07-26 23:44:00,61.0,58.4,30.00,ESE,122,0.0,0.0,91,0.00,,,0.00,Wunderground v.1.15,2013-07-27 03:44:00,
2013-07-26 23:50:00,60.8,58.5,30.00,ESE,122,0.0,0.0,92,0.00,,,0.00,Wunderground v.1.15,2013-07-27 03:50:00,
2013-07-26 23:55:00,60.8,58.5,30.00,ESE,122,0.0,0.0,92,0.00,,,0.00,Wunderground v.1.15,2013-07-27 03:55:00,